Regional Weather Roundup
Issued by NWS

Home | Current Version | Previous Version | Text Only | Print | Product List | Glossary On
Versions: 1 2 3 4 5 6 7 8 9 10 11 12 13 14 15 16 17 18 19 20 21 22 23 24 25 26 27 28 29 30 31 32 33 34 35 36 37 38 39 40 41 42 43 44 45 46 47 48 49 50
000
ASUS43 KMKX 142321
RWRWI

WISCONSIN REGIONAL WEATHER ROUNDUP
NATIONAL WEATHER SERVICE MILWAUKEE/SULLIVAN WI
600 PM CDT SUN SEP 14 2014

NOTE: "FAIR" INDICATES FEW OR NO CLOUDS BELOW 12,000 FEET WITH NO
SIGNIFICANT WEATHER AND/OR OBSTRUCTIONS TO VISIBILITY.

WIZ001-002-006>008-014>016-023>028-150000-
NORTHWEST WISCONSIN

CITY           SKY/WX    TMP DP  RH WIND       PRES   REMARKS
SUPERIOR ARPT  MOSUNNY   56  43  60 W7        30.06R
ASHLAND        MOSUNNY   57  44  62 W6        30.06R
HAYWARD        MOSUNNY   58  41  53 VRB6      30.07S
SIREN          CLOUDY    59  43  55 NW8       30.09R
RICE LAKE      MOSUNNY   60  39  45 W8        30.10R
LADYSMITH      PTSUNNY   58  42  54 W9        30.09R
EAU CLAIRE     SUNNY     63  38  39 W14       30.08S
MENOMONIE      CLEAR     64  37  36 SW12      30.09R
NEW RICHMOND   MOSUNNY   60  39  47 W8        30.11R
OSCEOLA        MOSUNNY   60  41  49 W10       30.13R
$$

WIZ003>005-009-010-017-018-150000-
NORTH CENTRAL WISCONSIN

CITY           SKY/WX    TMP DP  RH WIND       PRES   REMARKS
WOODRUFF       MOSUNNY   59  40  49 W7        30.05R
RHINELANDER    PTSUNNY   58  41  53 W9        30.06S
EAGLE RIVER    CLOUDY    57  40  52 W5        30.04R
LAND O LAKES   PTSUNNY   57  39  50 W8        30.05R
PHILLIPS       PTSUNNY   57  41  55 CALM      30.06R
TOMAHAWK       MOSUNNY   57  41  54 W3        30.07R
MEDFORD        SUNNY     59  41  51 W10       30.08R
MERRILL        PTSUNNY   61  44  52 W12G18    30.06F
$$

WIZ029-030-035-036-043>047-150000-
CENTRAL WISCONSIN

CITY           SKY/WX    TMP DP  RH WIND       PRES   REMARKS
WAUSAU         SUNNY     62  44  51 W15       30.06S
MOSINEE        MOSUNNY   61  50  67 W9G17     30.08
MARSHFIELD     SUNNY     63  46  54 NW9       30.08R
STEVENS POINT  PTSUNNY   62  47  58 SW9       30.07F
WAUPACA        MOSUNNY   67  48  50 SW9G16    30.08S
WAUTOMA        MOSUNNY   66  48  52 SW12      30.10S
WISC RAPIDS    LGT RAIN  65  48  54 SW12G20   30.09S
CAMP DOUGLAS   MOSUNNY   65  50  58 SW8       30.09F
$$

WIZ011>013-019>022-031-037>040-048>050-150000-
NORTHEAST WISCONSIN

CITY           SKY/WX    TMP DP  RH WIND       PRES   REMARKS
ANTIGO         SUNNY     60  42  52 W17       30.07S
STURGEON BAY   PTSUNNY   61  46  59 S9        30.07F
GREEN BAY      SUNNY     63  47  55 SW13      30.08F
MANITOWOC      MOSUNNY   63  47  55 SW13      30.11F
APPLETON       MOSUNNY   64  46  52 SW13G18   30.09F
CLINTONVILLE   PTSUNNY   64  45  48 SW9G17    30.07S
OSHKOSH        MOSUNNY   63  47  55 SW10      30.10F
$$

WIZ032>034-041-042-053>061-150000-
SOUTHWEST WISCONSIN

CITY           SKY/WX    TMP DP  RH WIND       PRES   REMARKS
LA CROSSE      PTSUNNY   68  50  52 SW10      30.08S
SPARTA         PTSUNNY   64  47  52 SW7       30.09F
VIROQUA        MOCLDY    66  48  53 SW6       30.10F
BOSCOBEL       SUNNY     68  48  48 S7G17     30.11F
PRAIRIE DU CHI MOSUNNY   64  47  52 S3        30.11F
PLATTEVILLE    FAIR      63  48  59 CALM      30.16S
$$

WIZ056-057-062-063-064-067-068-150000-
SOUTH CENTRAL WISCONSIN

CITY           SKY/WX    TMP DP  RH WIND       PRES   REMARKS
BARABOO/DELLS  SUNNY     64  45  49 SW8       30.12S
LONE ROCK      MOSUNNY   69  46  43 SW8       30.12F
WATERTOWN      SUNNY     63  46  54 SW10      30.14S
MADISON        MOSUNNY   65  46  50 SW7       30.14S
MIDDLETON      FAIR      64  45  51 SW7       30.15R
MONROE         MOSUNNY   63  46  55 SW10      30.16R
JANESVILLE     MOSUNNY   66  43  42 SW14      30.15S
$$

WIZ051-052-058>065-066-070>072-150000-
SOUTHEAST WISCONSIN

CITY           SKY/WX    TMP DP  RH WIND       PRES   REMARKS
MILWAUKEE      MOSUNNY   63  43  48 SW13      30.16S
WAUKESHA       SUNNY     61  43  51 SW12      30.16
MILWAUKEE/TIMM SUNNY     64  43  45 SW12      30.15S
RACINE         SUNNY     63  44  50 SW7       30.17F
BURLINGTON     SUNNY     61  44  54 SW9       30.16S
KENOSHA        SUNNY     62  46  55 SW8       30.17S
FOND DU LAC    MOSUNNY   62  46  55 SW9       30.12S
SHEBOYGAN      PTSUNNY   61  45  55 SW9       30.13S
WEST BEND      SUNNY     63  43  48 SW9       30.14S
JUNEAU         PTSUNNY   62  47  56 S10       30.15S
$$

LSZ147-162-150000-
LAKE SUPERIOR

STATION/POSITION TIME  TEMP    WIND        PRES    WAVE
                       AIR SEA DIR/SP/G            HT/PER
                 (UTC) (F)     (DEG/KT/KT) (MB)    (FT/S)
W MID LAKE BUOY  2250   51 47  240/ 14/ 16 1016.0R   3/ 6
DEVILS ISLAND    2300   54     250/ 15/ 17 1017.1R
PORT WING        2200   58     260/  7/ 11 1017.6S
SAXON HARBOR     2200   61     280/  9/ 15 1017.3
$$

LMZ867-665-643>646-150000-
LAKE MICHIGAN

STATION/POSITION TIME  TEMP    WIND        PRES    WAVE
                       AIR SEA DIR/SP/G            HT/PER
                 (UTC) (F)     (DEG/KT/KT) (MB)    (FT/S)
N MID LAKE BUOY  2250   58 58  210/ 25/ 31 1017.7F   7/ 6
NORTHPORT PIER   2200   58     160/  8/ 17 1017.9F
KEWAUNEE LAKESHO 2200   54     180/ 14/ 17 1018.5F
SHEBOYGAN LAKESH 2300   63 50  220/ 11/ 12 1020.7R
PORT WASHINGTON  2240   67     230/  6/ 16 1021.0F
MILWAUKEE LAKESH 2300   63     220/ 13/ 15   N/A
S MID LAKE BUOY  2250   60 65  200/ 12/ 14 1022.2F   2/ 4
KENOSHA   LAKESH 2300   64     220/ 10/ 13 1021.0F
$$

TC  - TEMPERATURE IN CELSIUS
VSB - VISIBILITY IN STATUTE MILES
WCI - WIND CHILL INDEX
HX  - HEAT INDEX



USA.gov is the U.S. government's official web portal to all federal, state and local government web resources and services.